This demonstration page uses our WeatherBlox Daily Observations layout. Learn more.

Left ArrowRight Arrow

Hourly Observations for September 25, 2021

Temp ( °F °C ) Dew Point ( °F °C ) Humidity (%) Winds ( mph kmh ) Pressure ( in mb ) Visibility ( mi km ) Precip ( " mm )
12:51 am 00:51 Clear 73 22.8 52 11.1 48 48 NNW 8 13 29.88 1012 10 16 N/A
1:51 am 01:51 Clear 72 22.2 52 11.1 50 50 WNW 7 11 29.88 1012 10 16 N/A
2:51 am 02:51 Clear 71 21.7 52 11.1 51 51 NW 5 7 29.88 1012 10 16 N/A
3:51 am 03:51 Clear 69 20.6 52 11.1 55 55 N N/A 29.90 1012 10 16 N/A
4:51 am 04:51 Partly Cloudy 68 20 52 11.1 57 57 NE 6 9 29.91 1013 10 16 N/A
5:51 am 05:51 Clear 66 18.9 51 10.6 59 59 ESE 3 6 29.93 1013 10 16 N/A
6:51 am 06:51 Partly Cloudy 69 20.6 52 11.1 55 55 ESE 3 6 29.95 1014 10 16 N/A
7:51 am 07:51 Cloudy 76 24.4 53 11.7 45 45 N 6 9 29.95 1014 10 16 N/A
8:51 am 08:51 Mostly Cloudy 75 23.9 56 13.3 52 52 WNW 8 13 29.98 1015 10 16 N/A
9:51 am 09:51 Sunny 76 24.4 58 14.4 54 54 W 12 19 29.98 1015 10 16 N/A
10:51 am 10:51 Sunny 77 25 54 12.2 45 45 WNW 12 19 29.97 1015 10 16 N/A
11:51 am 11:51 Sunny 80 26.7 54 12.2 41 41 WNW 12 19 29.94 1014 10 16 N/A
12:51 pm 12:51 Sunny 86 30 55 12.8 35 35 NNW 6 9 29.89 1012 10 16 N/A
1:51 pm 13:51 Sunny 87 30.6 55 12.8 34 34 undefined N/A 29.86 1011 10 16 N/A
2:51 pm 14:51 Sunny 87 30.6 54 12.2 32 32 VRB 5 7 29.84 1010 10 16 N/A
3:51 pm 15:51 Sunny 86 30 54 12.2 33 33 VRB 5 7 29.82 1010 10 16 N/A
4:51 pm 16:51 Mostly Sunny 85 29.4 54 12.2 35 35 W 3 6 29.82 1010 10 16 N/A
5:44 pm 17:44 Partly Cloudy 81 27.2 58 14.4 45 45 ESE 18 30 29.78 1008 10 16 N/A
5:51 pm 17:51 Mostly Cloudy 79 26.1 58 14.4 49 49 ESE 13 20 29.86 1011 10 16 N/A
6:01 pm 18:01 Mostly Cloudy with Nearby Thunderstorms 79 26.1 59 15 50 50 E 12 19 29.80 1009 10 16 N/A
6:37 pm 18:37 Cloudy 79 26.1 58 14.4 49 49 E 10 17 29.82 1010 10 16 N/A
6:51 pm 18:51 Cloudy 78 25.6 58 14.4 50 50 ENE 13 20 29.90 1012 10 16 N/A
7:00 pm 19:00 Cloudy with Nearby Thunderstorms 78 25.6 59 15 52 52 NE 12 19 29.85 1011 10 16 0.00 0.00
7:15 pm 19:15 Cloudy with Thunderstorms 69 20.6 64 17.8 84 84 S 17 28 29.94 1014 3 5 0.02 0.51
7:21 pm 19:21 Cloudy with Strong Thunderstorms 68 20 63 17.2 84 84 SSE 12 19 29.96 1014 2 3 0.11 2.79
7:31 pm 19:31 Cloudy with Strong Thunderstorms 66 18.9 64 17.8 93 93 E 17 28 29.97 1015 2 2 0.21 5.33
7:37 pm 19:37 Cloudy with Rain 66 18.9 64 17.8 93 93 E 20 31 29.97 1015 2 3 0.40 10.16
7:46 pm 19:46 Cloudy with Thunderstorms 64 18 64 18 100 100 E 16 26 29.99 1016 4 6 0.46 11.68
7:51 pm 19:51 Cloudy with Thunderstorms 65 18.3 64 17.8 97 97 E 12 19 29.98 1015 5 8 0.48 12.19
8:01 pm 20:01 Cloudy with Nearby Thunderstorms 66 18.9 64 17.8 93 93 ENE 13 20 29.99 1016 7 11 0.03 0.76
8:27 pm 20:27 Cloudy with Light Rain 67 19.4 64 17.8 91 91 ENE 14 22 30.00 1016 7 11 0.05 1.27
8:51 pm 20:51 Cloudy with Light Rain 67 19.4 63 17.2 87 87 E 9 15 30.01 1016 10 16 0.10 2.54
9:51 pm 21:51 Cloudy with Light Rain 66 18.9 61 16.1 84 84 NE 13 20 29.99 1016 10 16 0.01 0.25
10:51 pm 22:51 Cloudy 66 18.9 62 16.7 87 87 SSW 3 6 29.99 1016 10 16 0.01 0.25
11:51 pm 23:51 Cloudy 66 18.9 64 17.8 93 93 NW 5 7 29.98 1015 10 16 N/A

Powered by AerisWeather